Weather History for Kansas City, MO

Change the Weather History Date:

Tuesday, May 14, 2013

  Actual Average Record
Temperature  
Mean Temperature 80 °F -  
Max Temperature 93 °F 74 °F 93 °F (2013)
Min Temperature 68 °F 54 °F 44 °F (2004)
Cooling Degree Days 16    
Growing Degree Days 30 (Base 50)    
Moisture  
Dew Point 50 °F    
Average Humidity 37    
Maximum Humidity 63    
Minimum Humidity 19    
Precipitation  
Precipitation 0.00 in - - ()
Sea Level Pressure  
Sea Level Pressure 29.82 in    
Wind  
Wind Speed 10 mph (SW)    
Max Wind Speed 21 mph    
Max Gust Speed 34 mph    
Visibility 10 miles    
Events      
Averages and records for this station are not official NWS values.
T = Trace of Precipitation, MM = Missing Value Source: NWS Daily Summary

Daily Weather History Graph

Daily Weather History Graph

Search for Another Location

Airport:

Trip Planner

Search our weather history database for the weather conditions in past years. The results will help you decide how hot, cold, wet, or windy it might be!

Date:

Astronomy

May. 14, 2013 Rise Set
Actual Time 6:05 AM CDT 8:24 PM CDT
Civil Twilight 5:35 AM CDT 8:54 PM CDT
Nautical Twilight 4:58 AM CDT 9:31 PM CDT
Astronomical Twilight 4:18 AM CDT 10:12 PM CDT
Moon 9:46 AM CDT (5/14) No Moon Set
Length of Visible Light 15h 18m
Length of Day
14h 18m
Waxing Crescent, 19% of the Moon is Illuminated
May 14
Waxing Crescent
May 17
First Quarter
May 24
Full
May 31
Last Quarter
Jun 8
New

Hourly Weather History & Observations

Time (CDT) Temp. Dew Point Humidity Pressure Visibility Wind Dir Wind Speed Gust Speed Precip Events Conditions
12:54 AM 68.0 °F 55.0 °F 63% 29.90 in 10.0 mi SSW 8.1 mph - N/A   Clear
1:54 AM 68.0 °F 54.0 °F 61% 29.87 in 10.0 mi SSW 4.6 mph - N/A   Clear
2:54 AM 68.0 °F 53.1 °F 59% 29.85 in 10.0 mi SSW 5.8 mph - N/A   Clear
3:54 AM 72.0 °F 53.1 °F 51% 29.84 in 10.0 mi SSW 12.7 mph - N/A   Clear
4:54 AM 72.0 °F 52.0 °F 49% 29.83 in 10.0 mi SW 9.2 mph - N/A   Clear
5:54 AM 69.1 °F 52.0 °F 54% 29.84 in 10.0 mi SW 8.1 mph - N/A   Clear
6:54 AM 68.0 °F 52.0 °F 56% 29.85 in 10.0 mi SSW 3.5 mph - N/A   Clear
7:54 AM 72.0 °F 51.1 °F 48% 29.85 in 10.0 mi SW 5.8 mph - N/A   Clear
8:54 AM 75.0 °F 50.0 °F 41% 29.85 in 10.0 mi SW 6.9 mph - N/A   Clear
9:54 AM 79.0 °F 48.9 °F 35% 29.85 in 10.0 mi WSW 10.4 mph - N/A   Clear
10:54 AM 82.9 °F 50.0 °F 32% 29.84 in 10.0 mi SW 10.4 mph - N/A   Clear
11:54 AM 86.0 °F 48.0 °F 27% 29.84 in 10.0 mi SW 12.7 mph 19.6 mph N/A   Clear
12:54 PM 89.1 °F 51.1 °F 27% 29.82 in 10.0 mi SW 18.4 mph 23.0 mph N/A   Clear
1:54 PM 91.9 °F 51.1 °F 25% 29.80 in 10.0 mi SW 18.4 mph 26.5 mph N/A   Clear
2:54 PM 91.9 °F 48.9 °F 23% 29.79 in 10.0 mi SW 17.3 mph 28.8 mph N/A   Clear
3:54 PM 93.0 °F 48.9 °F 22% 29.77 in 10.0 mi SW 19.6 mph 27.6 mph N/A   Clear
4:54 PM 93.0 °F 45.0 °F 19% 29.77 in 10.0 mi SW 20.7 mph 34.5 mph N/A   Clear
5:54 PM 91.0 °F 45.0 °F 20% 29.76 in 10.0 mi SW 16.1 mph 33.4 mph N/A   Clear
6:54 PM 89.1 °F 45.0 °F 22% 29.76 in 10.0 mi SW 20.7 mph 31.1 mph N/A   Clear
7:54 PM 87.1 °F 43.0 °F 21% 29.77 in 10.0 mi SW 12.7 mph 27.6 mph N/A   Clear
8:54 PM 84.0 °F 44.1 °F 25% 29.78 in 10.0 mi SW 10.4 mph 19.6 mph N/A   Clear
9:54 PM 79.0 °F 46.9 °F 32% 29.81 in 10.0 mi SSW 10.4 mph - N/A   Clear
10:54 PM 78.1 °F 51.1 °F 39% 29.80 in 10.0 mi SSW 12.7 mph 21.9 mph N/A   Clear
11:54 PM 75.9 °F 54.0 °F 46% 29.81 in 10.0 mi SSW 10.4 mph 19.6 mph N/A   Clear